Preview of NWS' New Version of Forecast
This preview is not operational and should not be used for support decisions.

Regional Weather Roundup (RWR)

Issued by National Weather Service (NWS)

                            
000
ASUS46 KPQR 152110
RWROR 

OREGON REGIONAL WEATHER ROUNDUP
NATIONAL WEATHER SERVICE PORTLAND OR
200 PM PDT MON OCT 15 2018

NOTE: "FAIR" INDICATES FEW OR NO CLOUDS BELOW 12,000 FEET WITH
NO SIGNIFICANT WEATHER AND/OR OBSTRUCTIONS TO VISIBILITY.

ORZ001>013-152200-
NORTHWEST OREGON

  
CITY           SKY/WX    TMP DP  RH WIND       PRES   REMARKS
ASTORIA        SUNNY     71  46  40 NE8       30.23F                  
TILLAMOOK      SUNNY     77  32  19 NE12      30.22S                  
NEWPORT        SUNNY     77  32  19 E6        30.22F                  
PORTLAND       MOSUNNY   68  36  30 VRB3      30.27F                  
VANCOUVER WA   SUNNY     67  40  37 SW5       30.26F                  
SCAPPOOSE      SUNNY     72  41  32 CALM      30.26F                  
HILLSBORO      SUNNY     73  32  22 VRB6      30.26F                  
AURORA         SUNNY     76  33  21 N8        30.24F                  
MCMINNVILLE    SUNNY     73  31  21 NE7       30.24F                  
SALEM          SUNNY     72  31  22 N9        30.23F                  
CORVALLIS      SUNNY     70  30  22 VRB5      30.24F                  
EUGENE         SUNNY     69  29  22 VRB7      30.24F                  
$$

ORZ021-028-152200-
SOUTHWEST OREGON

  
CITY           SKY/WX    TMP DP  RH WIND       PRES   REMARKS
NORTH BEND     SUNNY    N/A N/A N/A SW7       30.19                   
BROOKINGS      SUNNY     74  29  19 VRB3      30.18F                  
ROSEBURG       SUNNY     73  22  14 CALM      30.21F                  
SEXTON SUMMIT  SUNNY     67   9  10 SE9       30.29F                  
GRANTS PASS    FAIR      72  14  11 SW5       30.24F                  
MEDFORD        SUNNY     74   9   8 NW6       30.22F                  
$$

ORZ014>016-041-152200-
COLUMBIA GORGE

  
CITY           SKY/WX    TMP DP  RH WIND       PRES   REMARKS
TROUTDALE      SUNNY     67  31  26 E25G32    30.26F                  
THE DALLES     SUNNY     65  30  27 MISG      30.38F                  
$$

ORZ029>031-041-044-049-050-061>064-502-503-505>511-152200-
EASTERN OREGON

  
CITY           SKY/WX    TMP DP  RH WIND       PRES   REMARKS
MADRAS         NOT AVBL                                               
REDMOND        SUNNY     66   8  10 CALM      30.37F                  
BEND           NOT AVBL                                               
PRINEVILLE     SUNNY     64   7  10 CALM      30.37F                  
KLAMATH FALLS  SUNNY     58  13  17 VRB3      30.37F                  
LAKEVIEW       SUNNY     62   7  11 SW5       30.38F                  
HERMISTON      SUNNY     61  33  35 VRB3      30.42F                  
PENDLETON      SUNNY     62  29  28 N7        30.40F                  
MEACHAM        SUNNY     59  26  28 VRB3      30.41S                  
LA GRANDE      NOT AVBL                                               
BAKER CITY     SUNNY     59  24  26 VRB3      30.41F HAZE             
BURNS          SUNNY     54  10  17 S3        30.42F                  
ROME             N/A     56   3  11 VRB3      30.40F                  
ONTARIO        SUNNY     57  20  23 CALM      30.43F                  
$$